Flag for Lebanon Weather past 2 weeks in Beirut, Lebanon

Now
81 °F

Passing clouds.


Feels Like: 84 °F
Forecast: 78 / 86 °F
Wind: 3 mph from West

Location: Beirut Airport

Current Time: Sep 23, 2014 at 9:36:49 PM

Latest Report: Sep 23, 2014 at 8:00 PM


Visibility: 5 mi

Pressure: 29.95 "Hg

Humidity: 70%

Dew point: 70 °F

Location of BeirutLocation

Historic Weather in Beirut — Graph

°F

Beirut temperature yesterday

Maximum temperature yesterday: 86 °F (at 3:00 PM)
Minimum temperature yesterday: 77 °F (at 6:00 AM)
Average temperature yesterday: 81 °F

Past Weeks' High & Low Weather Summary

 TemperatureHumidityPressure
High88 °F (Sep 10, 2:00 PM)70% (Sep 10, 1:00 AM)30.01 "Hg (Sep 10, 1:00 AM)
Low75 °F (Sep 20, 5:00 AM)42% (Sep 9, 8:00 AM)29.77 "Hg (Sep 17, 6:00 PM)
Average81 °F59%29.91 "Hg
* Reported Sep 8 8:00 PM — Sep 23 8:00 PM, Beirut, Weather by CustomWeather, © 2014

Note: Actual official high and low records may vary slightly from our data, if they occured in-between our weather recording intervals... More about our weather records

Advertising

Beirut weather history for previous 24 hours

 ConditionsComfort  
Time TempWeatherWind HumidityBarometerVisibility
8:00 PM
Sep 23
81 °FPassing clouds.3 mph70%29.95 "Hg5 mi
7:00 PM81 °FScattered clouds.3 mph70%29.95 "Hg5 mi
6:00 PM82 °FScattered clouds.6 mph62%29.95 "Hg5 mi
5:00 PM84 °FScattered clouds.7 mph62%29.95 "Hg5 mi
4:00 PM84 °FScattered clouds.9 mph62%29.95 "Hg5 mi
3:00 PM84 °FScattered clouds.9 mph58%29.95 "Hg5 mi
2:00 PM84 °FScattered clouds.9 mph62%29.95 "Hg5 mi
1:00 PM84 °FScattered clouds.12 mph66%29.98 "Hg5 mi
12:00 PM84 °FPassing clouds.12 mph62%29.98 "Hg5 mi
11:00 AM84 °FPassing clouds.10 mph55%29.95 "Hg5 mi
10:00 AM82 °FPassing clouds.8 mph58%29.95 "Hg5 mi
9:00 AM84 °FPassing clouds.2 mph48%29.95 "Hg5 mi
8:00 AM79 °FScattered clouds.6 mph51%29.95 "Hg5 mi
7:00 AM77 °FPassing clouds.5 mph54%29.92 "HgN/A
6:00 AM77 °FPassing clouds.5 mph54%29.92 "HgN/A
5:00 AM75 °FPassing clouds.6 mph61%29.92 "HgN/A
4:00 AM77 °FPassing clouds.5 mph57%29.92 "HgN/A
3:00 AM77 °FPassing clouds.5 mph61%29.92 "HgN/A
2:00 AM77 °FPassing clouds.3 mph61%29.92 "HgN/A
1:00 AM77 °FPassing clouds.5 mph65%29.92 "HgN/A
12:00 AM79 °FPassing clouds.6 mph61%29.95 "HgN/A
11:00 PM
Sep 22
79 °FPassing clouds.6 mph61%29.95 "HgN/A
10:00 PM79 °FPassing clouds.6 mph61%29.92 "HgN/A
9:00 PM79 °FPassing clouds.6 mph61%29.92 "HgN/A
Weather by CustomWeather, © 2014

See weather overviewHow to use our weather pages